Regional Weather Roundup
Issued by NWS

Home | Current Version | Previous Version | Graphics & Text | Print | Product List | Glossary On
Versions: 1 2 3 4 5 6 7 8 9 10 11 12 13 14 15 16 17 18 19 20 21 22 23 24 25 26 27 28 29 30 31 32 33 34 35 36 37 38 39 40 41 42 43 44 45 46 47 48 49 50
447
ASUS45 KBOU 181507
RWRCO

WEATHER ROUNDUP FOR COLORADO
NATIONAL WEATHER SERVICE DENVER/BOULDER CO
800 AM MST WED JAN 18 2017

NOTE: "FAIR" INDICATES FEW OR NO CLOUDS BELOW 12000 FEET WITH NO
SIGNIFICANT WEATHER AND/OR OBSTRUCTIONS TO VISIBILITY.

COZ001>005-013-030-031-181600-
...NORTHWEST COLORADO...

CITY           SKY/WX    TMP DP  RH WIND       PRES   REMARKS
CRAIG          FOG        1  -2  87 CALM      30.16S VSB 1/4
HAYDEN         FAIR      10   7  85 E12       30.12R WCI  -4
MEEKER         FAIR       9   6  88 CALM      30.14R
MOUNT WERNER   NOT AVBL
STEAMBOAT SPGS FAIR       3  -1  85 CALM      30.12S
WALDEN           N/A    N/A N/A N/A CALM      30.11S VSB 1/2
$$

COZ006>008-011-181600-
...WEST CENTRAL VALLEYS...

CITY           SKY/WX    TMP DP  RH WIND       PRES   REMARKS
GRAND JUNCTION FAIR      26  25  96 N3        30.14S
MONTROSE       FAIR      30  26  85 SE6       30.15S WCI  24
EAGLE          CLOUDY    21  18  86 CALM      30.18F
RIFLE          FAIR      24  21  88 S3        30.14F
DELTA          CLOUDY    33  29  84 N5        30.14F WCI  29
NUCLA          FAIR      27  21  80 CALM      30.17R
$$

COZ017>023-064>068-181600-
...SOUTHWEST COLORADO...

CITY           SKY/WX    TMP DP  RH WIND       PRES   REMARKS
DURANGO        MOCLDY    27  22  81 CALM      30.11S
CORTEZ         FAIR      22  20  92 NE5       30.13S WCI  16
PAGOSA SPRINGS CLOUDY    29  28  92 CALM      30.10R
TELLURIDE      FAIR      15  10  80 SE7       30.12S WCI   6
WOLF CREEK PAS CLOUDY    14  14 100 SW5       30.12F WCI   6
$$

COZ009-010-012-014-032>034-037-058>063-181600-
...CENTRAL COLORADO...

CITY           SKY/WX    TMP DP  RH WIND       PRES   REMARKS
ASPEN          FAIR      12   6  77 S8        30.11F WCI   0
BUENA VISTA    FAIR       1  -3  82 W6        30.08S WCI -10
COPPER MTN     NOT AVBL
BERTHOUD PASS  NOT AVBL
COTTONWOOD PAS FAIR      27  -2  28 W7        30.04S WCI  19
GUNNISON       FLURRIES  22  15  75 N10       30.15F WCI  11
KREMMLING      CLOUDY    18  12  79 CALM      30.19S
LEADVILLE      FAIR       6   3  87 N6        30.07S WCI  -4
MONARCH PASS     N/A     12   9  85 MISG      30.17F
SALIDA         FAIR      19  10  68 N16       30.14F WCI   4
SUNLIGHT       FAIR      14  12  92 CALM      30.11F FOG
WILKERSON PASS FAIR      27 -24  10 NE10G17   30.07S WCI  17
$$

COZ069>075-181600-
...SAN LUIS VALLEY/SANGRE DE CRISTO MOUNTAINS...

CITY           SKY/WX    TMP DP  RH WIND       PRES   REMARKS
ALAMOSA        CLOUDY    24  24 100 NW6       30.10S WCI  17
LA VETA PASS   FOG       19  16  86 MISG      30.01S VSB 3/4
SAGUACHE       FAIR      21  16  79 N13       30.10F WCI   9
$$

COZ035-036-038>040-181600-
...NORTHERN COLORADO FRONT RANGE...

CITY           SKY/WX    TMP DP  RH WIND       PRES   REMARKS
DENVER INTL AP FAIR      26  13  57 SW9       29.94S WCI  17
DMNS CITY PARK   N/A     26  12  54 SE10      29.96S WCI  17
AURORA         PTCLDY    25  12  57 S9        29.95S WCI  15
FRONT RANGE AP PTCLDY    30  14  51 SW13      29.95S WCI  20
ERIE MUNI ARPT FAIR      17  13  84 S5        29.95F WCI  10
BOULDER MUN AP FAIR      28  16  59 SW8       29.93F WCI  20
CENTENNIAL     FAIR      19  10  68 CALM      29.95S
BROOMFIELD     PTCLDY    32   9  37 W3        29.94F
FORT COLLINS   FAIR      25  18  74 S8        29.94F WCI  16
LONGMONT       FAIR      24  14  66 W7        29.96F WCI  16
$$

COZ041-046-047-076>085-087-088-181600-
...PIKES PEAK/PALMER DIVIDE AND SOUTHERN FOOTHILLS...

CITY           SKY/WX    TMP DP  RH WIND       PRES   REMARKS
COLO. SPRINGS  FAIR      27  12  53 N9        29.94F WCI  18
A. F. ACADEMY  FAIR      21  10  62 N8        29.94F WCI  12
SCHRIEVER AFB  NOT AVBL
ELLICOTT       FAIR     N/A N/A N/A N5        29.91F
FALCON         FAIR      32   5  31 N7        29.94F WCI  26
FORT CARSON    CLEAR     30  10  43 N8        29.94F WCI  23
LIMON          FAIR      15  11  83 CALM      29.93F
MONUMENT HILL  FAIR      27   9  46 W7        29.96F WCI  19
TRINIDAD       FAIR      25  17  72 W16       29.95F WCI  12
$$

COZ042>045-048>051-090-091-181600-
...NORTHEAST COLORADO...

CITY           SKY/WX    TMP DP  RH WIND       PRES   REMARKS
GREELEY ARPT   FAIR      20  18  92 CALM      29.95F
AKRON          FAIR      26  17  68 W15       29.92F WCI  14
BURLINGTON     FAIR      27  23  85 W9        29.92S WCI  18
WRAY           FAIR      19  16  86 W6        29.93F WCI  11
STERLING       FAIR      18  16  93 SW8       29.94S WCI   7
HOLYOKE        FAIR      21  18  86 W12       29.91F WCI   9
FORT MORGAN    FAIR      14  11  90 W8        29.94F WCI   2
$$

COZ086-089-092>099-181600-
...SOUTHEAST COLORADO...

CITY           SKY/WX    TMP DP  RH WIND       PRES   REMARKS
PUEBLO         FAIR      26  22  84 SW6       29.94F WCI  19
LA JUNTA       FAIR      18  14  84 W13       29.94F WCI   5
LAMAR          FOG       21  19  92 S7        29.96S VSB 1/2 WCI  12
SPRINGFIELD      N/A     30  29  96 SW7       29.93F WCI  23
$$




USA.gov is the U.S. government's official web portal to all federal, state and local government web resources and services.